Weather History for KCGE - October, 2013

Change the Weather History Date:

Thursday, October 31, 2013

  Actual Average (KESN) Record (KESN)
Temperature  
Mean Temperature 60 °F -  
Max Temperature 69 °F 62 °F 80 °F (1961)
Min Temperature 50 °F 41 °F 29 °F (1968)
Degree Days  
Heating Degree Days 6    
Growing Degree Days 10 (Base 50)    
Moisture  
Dew Point 57 °F    
Average Humidity 86    
Maximum Humidity 100    
Minimum Humidity 73    
Precipitation  
Precipitation 0.00 in - - ()
Sea Level Pressure  
Sea Level Pressure 30.06 in    
Wind  
Wind Speed 4 mph (SSE)    
Max Wind Speed 14 mph    
Max Gust Speed 20 mph    
Visibility 7 miles    
Events      
Averages and records for this station are not official NWS values.
T = Trace of Precipitation, MM = Missing Value Source: NWS Daily Summary

Daily Weather History Graph

Daily Weather History Graph

Search for Another Location

Airport or City:

Trip Planner

Search our weather history database for the weather conditions in past years. The results will help you decide how hot, cold, wet, or windy it might be!

Date:

Astronomy

Oct. 31, 2013 Rise Set
Actual Time 7:29 AM EDT 6:05 PM EDT
Civil Twilight 7:02 AM EDT 6:32 PM EDT
Nautical Twilight 6:31 AM EDT 7:03 PM EDT
Astronomical Twilight 6:00 AM EDT 7:34 PM EDT
Moon 4:19 AM EDT (10/31) 4:20 PM EDT (10/31)
Length of Visible Light 11h 30m
Length of Day
10h 35m
Waning Crescent, 10% of the Moon is Illuminated
Oct 31
Waning Crescent
Nov 3
New
Nov 10
First Quarter
Nov 17
Full
Nov 25
Last Quarter

Hourly Weather History & Observations

Time (EDT) Temp. Dew Point Humidity Pressure Visibility Wind Dir Wind Speed Gust Speed Precip Events Conditions
12:06 AM 55.4 °F 53.6 °F 94% 30.20 in 7.0 mi Calm Calm - N/A   Clear
12:26 AM 55.4 °F 53.6 °F 94% 30.20 in 3.0 mi Calm Calm - N/A   Clear
12:46 AM 53.6 °F 51.8 °F 94% 30.19 in 1.5 mi Calm Calm - N/A   Unknown
1:06 AM 53.6 °F 51.8 °F 94% 30.19 in 3.0 mi Calm Calm - N/A   Clear
1:26 AM 51.8 °F 50.0 °F 94% 30.18 in 0.2 mi Calm Calm - N/A   Unknown
1:47 AM 53.6 °F 51.8 °F 94% 30.18 in 0.2 mi Calm Calm - N/A   Unknown
2:07 AM 51.8 °F 50.0 °F 94% 30.18 in 0.2 mi Calm Calm - N/A   Unknown
2:27 AM 50.0 °F 50.0 °F 100% 30.18 in 0.2 mi Calm Calm - N/A   Overcast
2:47 AM 51.8 °F 50.0 °F 94% 30.18 in 0.2 mi Calm Calm - N/A   Mostly Cloudy
3:07 AM 50.0 °F 50.0 °F 100% 30.18 in 1.2 mi Calm Calm - N/A   Scattered Clouds
3:27 AM 51.8 °F 51.8 °F 100% 30.17 in 1.5 mi Calm Calm - N/A   Scattered Clouds
3:47 AM 51.8 °F 51.8 °F 100% 30.17 in 1.2 mi Calm Calm - N/A   Overcast
4:07 AM 51.8 °F 51.8 °F 100% 30.15 in 4.0 mi ESE 4.6 mph - N/A   Overcast
4:27 AM 53.6 °F 51.8 °F 94% 30.15 in 2.5 mi SSE 3.5 mph - N/A   Mostly Cloudy
4:47 AM 53.6 °F 51.8 °F 94% 30.16 in 1.8 mi Calm Calm - N/A   Mostly Cloudy
5:07 AM 53.6 °F 51.8 °F 94% 30.15 in 1.0 mi ESE 3.5 mph - N/A   Overcast
5:27 AM 53.6 °F 51.8 °F 94% 30.15 in 0.2 mi Calm Calm - N/A   Overcast
5:47 AM 51.8 °F 50.0 °F 94% 30.15 in 0.2 mi ESE 4.6 mph - N/A   Overcast
6:07 AM 53.6 °F 51.8 °F 94% 30.15 in 0.5 mi SE 4.6 mph - N/A   Overcast
6:27 AM 53.6 °F 51.8 °F 94% 30.14 in 0.2 mi SE 3.5 mph - N/A   Overcast
6:47 AM 53.6 °F 51.8 °F 94% 30.14 in 0.2 mi SE 4.6 mph - N/A   Overcast
7:07 AM 55.4 °F 53.6 °F 94% 30.13 in 1.2 mi SE 5.8 mph - N/A   Overcast
7:27 AM 55.4 °F 53.6 °F 94% 30.12 in 1.2 mi SSE 5.8 mph - N/A   Mostly Cloudy
7:47 AM 59.0 °F 55.4 °F 88% 30.13 in 3.0 mi Calm Calm - N/A   Scattered Clouds
8:07 AM 59.0 °F 55.4 °F 88% 30.13 in 4.0 mi SSE 5.8 mph - N/A   Clear
8:27 AM 59.0 °F 55.4 °F 88% 30.15 in 5.0 mi South 6.9 mph - N/A   Scattered Clouds
8:47 AM 60.8 °F 59.0 °F 94% 30.14 in 7.0 mi South 5.8 mph - N/A   Scattered Clouds
9:07 AM 60.8 °F 59.0 °F 94% 30.13 in 10.0 mi South 6.9 mph - N/A   Clear
9:27 AM 60.8 °F 59.0 °F 94% 30.12 in 10.0 mi South 8.1 mph - N/A   Clear
9:47 AM 62.6 °F 59.0 °F 88% 30.13 in 10.0 mi South 8.1 mph - N/A   Clear
10:07 AM 64.4 °F 59.0 °F 83% 30.13 in 10.0 mi South 9.2 mph - N/A   Clear
10:27 AM 64.4 °F 59.0 °F 83% 30.12 in 10.0 mi South 11.5 mph - N/A   Clear
10:48 AM 68.0 °F 59.0 °F 73% 30.11 in 10.0 mi South 11.5 mph - N/A   Clear
11:08 AM 68.0 °F 59.0 °F 73% 30.11 in 10.0 mi South 10.4 mph 16.1 mph N/A   Clear
11:28 AM 69.8 °F 60.8 °F 73% 30.10 in 10.0 mi South 9.2 mph - N/A   Clear
11:48 AM 69.8 °F 60.8 °F 73% 30.10 in 10.0 mi South 10.4 mph - N/A   Clear
12:08 PM 69.8 °F 60.8 °F 73% 30.09 in 10.0 mi SSE 6.9 mph - N/A   Clear
12:28 PM 68.0 °F 59.0 °F 73% 30.08 in 10.0 mi SSE 9.2 mph - N/A   Clear
12:48 PM 66.2 °F 59.0 °F 78% 30.07 in 10.0 mi SSE 9.2 mph - N/A   Clear
1:08 PM 66.2 °F 59.0 °F 78% 30.06 in 10.0 mi SSE 8.1 mph - N/A   Clear
1:28 PM 68.0 °F 59.0 °F 73% 30.05 in 10.0 mi SSE 6.9 mph - N/A   Clear
1:48 PM 68.0 °F 59.0 °F 73% 30.04 in 10.0 mi SSE 6.9 mph - N/A   Clear
2:08 PM 68.0 °F 59.0 °F 73% 30.03 in 10.0 mi South 6.9 mph - N/A   Clear
2:28 PM 68.0 °F 59.0 °F 73% 30.02 in 10.0 mi SSE 8.1 mph - N/A   Clear
2:48 PM 68.0 °F 59.0 °F 73% 30.02 in 10.0 mi SSE 8.1 mph - N/A   Clear
3:08 PM 68.0 °F 59.0 °F 73% 30.02 in 10.0 mi SSE 8.1 mph - N/A   Clear
3:28 PM 68.0 °F 59.0 °F 73% 30.00 in 10.0 mi SSE 9.2 mph - N/A   Clear
3:48 PM 68.0 °F 59.0 °F 73% 30.00 in 10.0 mi SSE 6.9 mph - N/A   Clear
4:08 PM 68.0 °F 59.0 °F 73% 29.99 in 10.0 mi SSE 9.2 mph - N/A   Clear
4:28 PM 68.0 °F 59.0 °F 73% 29.99 in 10.0 mi SSE 8.1 mph - N/A   Clear
4:48 PM 68.0 °F 59.0 °F 73% 29.98 in 10.0 mi South 9.2 mph - N/A   Clear
5:08 PM 66.2 °F 59.0 °F 78% 29.97 in 10.0 mi SSE 8.1 mph - N/A   Clear
5:28 PM 66.2 °F 57.2 °F 73% 29.97 in 10.0 mi South 5.8 mph - N/A   Clear
5:48 PM 64.4 °F 55.4 °F 73% 29.96 in 10.0 mi SSE 6.9 mph - N/A   Clear
6:08 PM 64.4 °F 55.4 °F 73% 29.95 in 10.0 mi SSE 9.2 mph - N/A   Clear
6:28 PM 64.4 °F 57.2 °F 77% 29.95 in 10.0 mi SSE 11.5 mph 17.3 mph N/A   Scattered Clouds
6:48 PM 64.4 °F 55.4 °F 73% 29.95 in 10.0 mi SSE 10.4 mph 16.1 mph N/A   Mostly Cloudy
7:09 PM 64.4 °F 57.2 °F 77% 29.94 in 10.0 mi SSE 9.2 mph 18.4 mph N/A   Scattered Clouds
7:29 PM 64.4 °F 59.0 °F 83% 29.95 in 10.0 mi South 9.2 mph - N/A   Mostly Cloudy
7:49 PM 68.0 °F 60.8 °F 78% 29.95 in 10.0 mi South 9.2 mph - N/A   Mostly Cloudy
8:09 PM 66.2 °F 60.8 °F 83% 29.93 in 10.0 mi South 9.2 mph 16.1 mph N/A   Mostly Cloudy
8:29 PM 64.4 °F 60.8 °F 88% 29.93 in 10.0 mi South 8.1 mph - N/A   Mostly Cloudy
8:49 PM 64.4 °F 60.8 °F 88% 29.93 in 10.0 mi South 8.1 mph - N/A   Scattered Clouds
9:09 PM 64.4 °F 62.6 °F 94% 29.93 in 10.0 mi South 11.5 mph - N/A   Mostly Cloudy
9:29 PM 64.4 °F 62.6 °F 94% 29.92 in 10.0 mi SSE 6.9 mph - N/A   Mostly Cloudy
9:49 PM 64.4 °F 62.6 °F 94% 29.92 in 10.0 mi South 9.2 mph - N/A   Scattered Clouds
10:09 PM 64.4 °F 62.6 °F 94% 29.91 in 10.0 mi SSE 9.2 mph - N/A   Scattered Clouds
10:29 PM 64.4 °F 62.6 °F 94% 29.90 in 10.0 mi South 10.4 mph - N/A   Clear
10:49 PM 64.4 °F 62.6 °F 94% 29.90 in 10.0 mi South 8.1 mph - N/A   Clear
11:09 PM 64.4 °F 62.6 °F 94% 29.88 in 10.0 mi SSE 8.1 mph - N/A   Clear
11:29 PM 66.2 °F 62.6 °F 88% 29.88 in 10.0 mi South 12.7 mph 19.6 mph N/A   Clear
11:49 PM 68.0 °F 64.4 °F 88% 29.87 in 10.0 mi South 13.8 mph 19.6 mph N/A   Clear